Content
SEND FEEDBACK

Daily
Averages
Monthly
Summary
Canada

LIVERPOOL BIG FALLS, NOVA SCOTIA


Home > North America > Canada > Nova Scotia
Elevation: 163 feet     Latitude: 44 08N     Longitude: 64 56W

WEATHER
 
SELECT A DAY
Number of Records: 162,328;   Date Range: 1/1/95 - 11/25/14
 
SHARE

PRINT THIS DATA

[ ← Previous Day ]
WEATHER ALMANAC - FEBRUARY 13, 2013
[ Next Day → ]
[ °C ]   °F
Weather ElementAverageHighLow
Temperature36.4 °F42.6 °F (4:00 pm)27.9 °F (11:00 pm)
Dewpoint29.2 °F32 °F (5:00 am)24 °F (11:00 pm)
Humidity73.8 %90 % (10:00 pm)50 % (2:00 pm)
Barometer29.72 in29.79 in (10:00 pm)29.62 in (1:00 am)
Wind Speed8 mph12.7 mph (1:00 am)
Wind Gust19.6 mph (1:00 am)
Weather ElementAverage
Wind DirectionW (267.7 °)

Weather ElementTotal
Precipitation---
Heating Degree Days29.8 (Base 65)
Averaged from 31 records on February 13, 2013
WEATHER CONDITIONS BREAKOUT
WIND DIRECTION BREAKOUT
WEATHER BY HOUR - FEBRUARY 13, 2013
[ °C ]   °F
Local TimeTemperatureDewpointHumidityBarometerVisibilityWind DirectionWind SpeedGust SpeedPrecipitationEventsConditions
1:00 AM37.8 °F31.3 °F77 %29.62 inWest (260°)12.7 mph19.6 mph
2:00 AM37.0 °F31.0 °F72 %29.64 inWest (270°)9.2 mph
2:00 AM37.2 °F31.3 °F79 %29.64 inWest (270°)9.2 mph
3:00 AM37.0 °F31.8 °F81 %29.63 inWest (270°)9.2 mph
4:00 AM36.0 °F31.5 °F84 %29.62 inWNW (290°)6.9 mph
5:00 AM37.0 °F32.0 °F75 %29.65 inWest (270°)8.1 mph
5:00 AM36.7 °F32.0 °F83 %29.65 inWest (270°)8.1 mph
6:00 AM35.6 °F31.6 °F85 %29.68 inWSW (250°)6.9 mph
7:00 AM35.6 °F32.0 °F87 %29.71 inWest (260°)6.9 mph
8:00 AM36.0 °F32.0 °F81 %29.73 inWSW (240°)8.1 mph
8:00 AM35.6 °F31.6 °F85 %29.73 inWSW (240°)8.1 mph
9:00 AM37.0 °F31.6 °F81 %29.74 inWest (260°)5.8 mph
10:00 AM38.3 °F31.5 °F76 %29.75 inWest (260°)8.1 mph
11:00 AM40.0 °F30.0 °F56 %29.74 inWest (280°)10.4 mph
11:00 AM39.6 °F29.8 °F68 %29.74 inWest (280°)10.4 mph
12:00 PM40.6 °F28.9 °F63 %29.73 inWNW (290°)9.2 mph
1:00 PM40.3 °F28.4 °F63 %29.72 inWest (270°)11.5 mph
2:00 PM40.0 °F28.0 °F50 %29.70 inWest (270°)11.5 mph
2:00 PM40.5 °F27.9 °F61 %29.70 inWest (270°)11.5 mph
3:00 PM41.0 °F29.1 °F63 %29.71 inWSW (250°)10.4 mph
4:00 PM42.6 °F28.0 °F56 %29.72 inWest (280°)10.4 mph
5:00 PM40.0 °F29.0 °F52 %29.74 inWest (260°)10.4 mph
5:00 PM40.1 °F28.6 °F63 %29.74 inWest (260°)10.4 mph
6:00 PM35.2 °F26.6 °F71 %29.74 inNNW (330°)3.5 mph
7:00 PM31.5 °F26.1 °F80 %29.75 inWNW (300°)4.6 mph
8:00 PM32.0 °F26.0 °F70 %29.77 inWNW (290°)4.6 mph
8:00 PM31.6 °F25.9 °F79 %29.77 inWNW (290°)4.6 mph
9:00 PM29.7 °F26.4 °F88 %29.78 inWSW (240°)4.6 mph
10:00 PM30.2 °F27.7 °F90 %29.79 inSW (230°)5.8 mph
11:00 PM28.0 °F24.0 °F81 %29.77 inWSW (250°)3.5 mph
11:00 PM27.9 °F24.4 °F87 %29.77 inWSW (250°)3.5 mph
Hourly data recorded from CWWE, located miles away from Liverpool Big Falls, Nova Scotia







STORIES FROM OUR PARTNERS